Location: Dreilärchen
(47.9312°N, 8.6113°E)
Time: 21:54:37
(UTC+00:00)

Cosmos 2237 Rocket - Pass Details

Date: 26 May 2022
Orbit: 834 x 851 km, 71.0° (Epoch: 03 July)

Event Time Altitude Azimuth Distance (km) Brightness Sun altitude
Exits shadow 01:11:49 23° 234° (SW) 1,716 3.3 -16.8°
Maximum altitude 01:15:13 54° 303° (WNW) 1,024 2.6 -16.5°
Drops below altitude 10° 01:20:49 10° 21° (NNE) 2,487 6.0 -16.1°
Sets 01:23:21 0° 26° (NNE) 3,427 7.2 -15.8°
